Location: ?????????
(54.7630°N, 39.4991°E)
Time: 21:31:06
(UTC+00:00)

Cosmos 1933 Rocket - Pass Details

Date: 14 April 2026
Orbit: 601 x 622 km, 82.5° (Epoch: 11 May)

Event Time Altitude Azimuth Distance (km) Brightness Sun altitude
Rises 17:30:20 0° 190° (S) 2,871 6.8 -9.5°
Reaches altitude 10° 17:32:32 10° 190° (S) 1,974 5.9 -9.8°
Maximum altitude 17:36:55 89° 273° (W) 627 3.6 -10.3°
Drops below altitude 10° 17:41:22 10° 12° (NNE) 2,002 6.5 -10.8°
Sets 17:43:37 0° 12° (NNE) 2,915 7.3 -11.1°
